User: anonymous   Login
Location: Unspecified
(0.0000°N, 0.0000°E)
Time: 06:58:05
(UTC+00:00)
Language:

WGS F3 (USA 211) - Orbit

View from above orbital plane
View from above orbital plane
View from above satellite
View from above satellite

Ground track
Ground track

The orbit data is extracted from the following two-line orbital elements,

1 36108U 09068A   14270.00682094 0.00000000  00000-0  00000-0 0    07
2 36108   0.0047 356.2203 0004459 351.6147   8.3752  1.00270000    06
Epoch (UTC): 27 September 2014 00:09:49
Eccentricity: 0.0004459
inclination: 0.0047°
perigee height: 35768 km
apogee height: 35805 km
right ascension of ascending node: 356.2203°
argument of perigee: 351.6147°
revolutions per day: 1.00270000
mean anomaly at epoch: 8.3752°
orbit number at epoch: 0

The dashed part of the orbit path shows where the satellite is in the earth's shadow,  

DLR